Airfield :
LOGIN :

Register | Disclaimer

   EN    FR    IT 

 










Legend :    VFR   Marginal VFR   IFR   Intensive IFR   Very Intensive IFR
Visi :
Ceiling :
>= 8 km
>= 3000ft
5 to 8 km
1000 to 3000 ft
1500m to 5 km
500 to 1000 ft
800 to 1500m
200 to 500 ft
< 800m
< 200 ft
Symbols :   Thunderstorms  Fog  Heavy snow  Heavy precipitations  Wind > 20 kt
SIGMETs :     Misc.  Thunderstorms  Icing  Turbulence  Mountain Waves  Volcanic Ashes







- Airport Elevation : 574 ft
- IATA code : NDR


GMMW - Nador El Aroui

CURRENT METAR :
  • 200900Z VRB02KT CAVOK 11/02 Q1023 NOSIG

EXPIRED METARs :
  • 200800Z 25004KT CAVOK 09/07 Q1023 NOSIG
  • 200700Z 25003KT 8000 NSC 06/06 Q1022 BECMG CAVOK

TAF TAF GMMW
Valid from the 20 at 06:00 until the 21 at 12:00 UTC


200500Z 2006/2112 25004KT 8000 NSC
No reported NOTAMs for that airfield.



MET'MAP, your aeronautical weather chart ! - Copyright ORBIFLY December 2007 - Disclaimer

ORBIFLY MET'MAP TEAM :

Programming & Development : Alexandra Zaïnal
Concept & Development : Baudouin d'Aumeries
Co-Development & Prog : Marc-Olivier Méhu
Technical & hardware support : Manuel Goepfert

Contact : metmap@orbifly.com




SOURCES & CREDITS :

   NOAA